Orbital Elements at Epoch 2459200.5 (2020-Dec-17.0) TDB
Reference: JPL 26 (heliocentric ecliptic J2000)
Element | Value | Uncertainty (1-sigma) | Units |
e | .08098212865462026 | 4.851e-08 | |
a | 3.067079401374415 | 1.7123e-08 | au |
q | 2.818700782698377 | 1.5291e-07 | au |
i | 8.525104577820525 | 5.0341e-06 | deg |
node | 309.6960605330665 | 2.7535e-05 | deg |
peri | 2.138856470080957 | 4.0578e-05 | deg |
M | 38.65331092690677 | 2.797e-05 | deg |
tp | 2458989.845784118787 (2020-May-20.34578412) | 0.00015318 | TDB |
period | 1961.941057536864 5.37 | 1.6429e-05 4.498e-08 | d yr |
n | .1834917509968241 | 1.5366e-09 | deg/d |
Q | 3.315458020050453 | 1.8509e-08 | au |
|
| | Orbit Determination Parameters
Additional Information
|